Theta_e
336 326 328 328 326 325 319 319 305 307 308 300 300 303 297 306 306 305 304 306 304 307 309 310 310 308 306 305 306 307 308 305 306 302 301 317 329 334 344 340 337 341 345 346 351 352 354 351 353 355 355 355 354 353 353 353 353 352 351 351 350 349 348 347 346 347 346 348 349 349 350 349 349 348 348 347 348 348 348 349 349 348 347 347 347 347 346 346 345 345 344 343 341 340 339 339 339
326 326 329 327 326 322 314 315 306 301 303 299 299 302 301 304 305 303 303 304 305 307 309 310 310 310 309 309 309 308 307 310 310 310 314 322 331 332 334 339 340 340 345 348 350 351 352 354 350 354 354 355 354 353 353 353 353 352 351 351 350 349 348 347 347 346 346 347 348 349 349 348 348 347 347 347 347 347 347 348 348 348 349 348 347 348 347 346 346 344 342 341 340 338 336 336 335
324 325 323 327 322 319 317 313 303 301 299 295 298 300 304 303 302 303 305 306 308 309 309 309 310 309 309 309 307 307 303 312 312 314 317 324 323 327 337 334 339 343 346 347 347 350 352 352 348 353 354 354 354 353 353 352 352 352 351 351 350 349 347 347 346 346 346 347 348 348 348 348 347 347 347 346 346 347 347 347 348 348 347 348 347 345 345 346 345 344 342 341 340 336 335 334 333
329 328 320 321 316 316 310 307 305 301 299 297 296 302 303 303 302 304 306 308 309 309 309 308 307 311 309 305 306 310 309 309 313 314 315 321 326 332 336 338 337 339 348 348 348 349 350 350 347 354 354 353 354 353 352 352 352 352 351 350 350 349 347 346 346 346 346 348 348 348 347 347 347 346 347 346 346 346 346 346 347 347 347 348 347 345 346 346 345 343 341 340 339 336 334 333 331
329 328 323 322 318 310 310 307 303 302 296 299 296 301 302 303 303 305 306 309 309 309 309 308 308 309 310 309 310 307 306 312 314 318 320 333 336 334 340 340 341 340 344 348 348 347 351 346 348 351 354 352 353 353 352 352 352 351 351 351 350 349 348 346 346 346 346 347 348 347 347 346 347 346 346 346 345 345 345 346 346 347 346 346 346 345 345 345 344 343 341 340 338 336 333 332 330
326 325 327 321 313 314 308 301 300 300 301 303 299 300 303 304 303 305 306 308 309 309 308 308 307 306 307 308 310 308 312 308 314 324 328 330 335 336 340 343 340 340 340 348 348 347 354 343 348 349 353 352 353 352 352 351 351 351 351 350 350 349 348 347 346 346 346 347 348 347 347 347 347 346 346 345 345 345 346 345 345 346 346 346 346 344 345 344 344 343 341 340 338 335 332 330 329
320 319 319 318 315 316 306 302 300 300 301 305 302 302 304 304 305 305 305 305 307 307 309 307 309 307 304 308 310 314 318 317 316 324 332 334 336 338 340 339 341 340 341 346 348 348 355 343 349 351 352 351 351 352 351 351 351 350 351 350 350 349 349 347 347 346 346 346 346 347 347 347 347 346 346 345 345 346 346 346 345 346 346 345 345 344 343 343 343 343 341 338 337 334 331 329 328
325 320 316 311 308 307 303 302 302 302 300 305 305 304 305 305 306 305 305 305 303 304 306 308 309 306 304 311 305 314 318 322 328 328 333 334 336 337 339 339 340 339 342 347 348 350 344 342 347 349 350 351 352 352 349 352 350 350 349 349 350 350 349 348 347 346 346 347 347 347 347 347 346 346 345 345 345 345 345 345 346 346 346 345 344 342 343 344 344 343 340 338 335 333 330 328 327
321 316 319 314 304 306 302 301 302 304 302 305 304 306 308 306 306 306 304 305 305 306 306 306 308 304 304 308 307 313 313 322 327 328 332 335 336 336 336 338 339 340 343 345 345 350 352 339 343 347 348 351 351 351 350 349 351 350 350 349 350 350 349 348 347 346 346 346 347 347 346 346 346 346 345 345 345 344 345 345 345 345 345 344 343 343 343 343 343 341 339 337 334 332 329 328 326
317 314 308 309 309 300 301 301 299 302 303 305 305 305 305 305 305 306 305 304 305 305 306 308 308 304 306 305 307 310 311 318 321 327 332 334 335 337 337 337 339 340 340 342 344 343 350 342 337 340 343 349 352 351 350 350 349 350 348 349 349 349 349 348 348 347 346 346 347 346 346 346 346 346 346 345 345 344 344 345 345 343 344 343 342 341 341 341 342 340 338 336 333 331 329 327 326
310 312 315 306 301 300 299 299 302 302 303 305 305 306 306 306 305 305 305 305 306 305 306 307 306 305 305 307 308 313 313 316 321 322 330 334 335 336 336 338 338 339 338 341 342 343 343 348 337 336 339 341 346 350 350 350 348 350 349 349 348 349 348 348 349 348 347 347 347 347 346 346 346 346 346 344 343 343 343 344 344 343 343 343 341 341 341 340 339 338 336 334 332 330 328 327 326
306 306 310 302 301 300 300 301 301 303 303 304 303 305 306 306 306 305 305 304 305 305 305 307 304 307 305 305 308 310 311 310 316 324 330 333 332 335 335 336 337 337 338 338 339 340 341 346 347 341 336 335 339 342 345 348 348 349 349 349 348 346 348 347 347 347 347 347 346 346 347 346 344 344 344 344 343 343 343 342 343 342 342 342 341 341 341 340 338 337 335 333 331 330 328 327 326
310 307 303 301 302 301 303 301 301 302 302 303 303 305 307 305 304 305 305 305 305 305 305 307 308 308 303 304 309 311 309 309 313 321 328 331 331 333 335 335 336 336 337 339 339 339 341 342 343 347 343 332 335 336 338 340 343 347 348 348 349 348 349 347 346 346 346 347 347 346 344 347 345 345 344 344 342 342 342 342 342 342 342 341 340 340 340 340 337 335 333 332 330 329 328 327 326
314 311 307 302 303 301 300 301 302 299 300 304 305 306 306 305 305 306 306 304 305 304 306 309 308 308 304 307 306 308 308 310 311 317 325 329 328 328 332 331 333 334 336 337 337 338 340 340 341 344 347 347 347 341 336 337 341 344 346 345 345 346 347 348 348 347 346 347 347 346 344 344 345 345 343 343 343 342 342 341 342 340 341 340 340 340 339 338 336 334 333 331 330 328 327 326 325
309 311 305 304 301 300 303 300 300 299 301 304 304 305 305 306 306 306 306 304 304 308 309 309 309 305 302 304 306 306 307 309 311 314 321 326 324 323 326 327 326 327 326 330 333 335 336 338 340 342 343 345 346 346 348 347 335 339 341 342 342 342 342 343 345 345 344 345 344 341 338 337 338 338 338 340 341 339 337 334 340 340 340 340 340 339 339 337 335 334 332 331 329 328 327 325 324
315 311 306 301 298 298 301 302 303 300 301 305 304 305 305 306 307 305 306 306 306 311 309 305 309 304 306 305 304 306 307 309 311 314 317 321 322 320 319 320 320 321 322 322 322 324 328 334 338 340 342 342 344 344 346 347 336 331 337 338 339 340 340 340 338 335 334 338 337 334 331 335 330 337 328 338 334 338 335 336 336 337 339 339 339 339 338 337 335 333 332 330 329 327 326 323 321
314 313 300 300 298 298 301 299 301 298 303 305 305 305 304 304 307 308 308 309 305 306 307 307 305 308 305 304 306 307 308 311 313 314 316 316 317 316 316 317 318 318 319 319 320 320 322 324 330 337 338 340 343 343 344 345 350 331 332 332 333 336 337 336 336 329 325 323 329 326 326 345 346 344 340 344 329 342 329 326 333 337 339 340 340 339 338 337 335 334 332 331 329 327 324 321 320
312 306 302 298 300 298 303 301 303 305 303 304 305 305 304 303 306 306 307 306 306 307 305 305 307 306 307 306 308 308 309 310 312 312 312 313 315 313 314 314 315 315 318 318 319 318 319 321 322 325 336 338 340 343 344 344 348 341 347 348 347 341 332 330 336 344 337 346 325 336 345 343 343 343 344 338 343 342 336 325 329 335 340 337 338 339 338 336 335 334 333 331 329 325 322 322 317
308 303 301 300 301 302 305 306 305 305 304 305 305 305 304 304 304 307 303 304 305 305 304 306 304 305 306 307 307 307 308 309 310 311 311 311 311 310 312 314 315 315 316 316 318 318 319 320 320 320 326 334 338 341 342 342 343 344 345 345 346 337 341 343 346 346 345 344 346 346 342 342 343 343 343 341 342 330 340 324 327 332 334 333 337 338 338 337 335 334 333 330 327 325 329 330 326
307 306 301 301 304 303 305 306 305 306 306 304 304 304 303 305 305 307 303 304 305 304 303 303 304 304 305 305 306 307 308 308 309 310 309 310 310 310 310 311 312 313 314 315 317 318 318 319 321 321 321 329 334 339 341 341 341 342 343 343 343 344 345 346 344 345 343 343 345 344 342 342 343 343 328 325 332 343 337 321 325 327 329 329 331 335 334 335 335 335 332 329 326 327 330 327 326
308 306 302 302 303 302 303 305 306 305 305 305 303 304 303 305 306 305 304 302 304 303 303 303 303 303 304 304 305 306 306 307 307 308 309 309 310 311 310 310 311 312 314 316 316 316 317 318 320 322 322 324 334 337 339 340 340 341 342 343 342 341 345 344 343 344 344 345 345 345 342 343 344 342 344 343 342 341 341 341 337 338 338 338 327 337 336 337 333 334 331 327 332 332 330 328 327
308 304 305 304 303 304 305 305 306 305 305 304 304 302 303 306 305 304 304 301 302 302 302 303 303 302 303 302 304 305 305 306 306 306 307 308 309 309 309 311 312 313 314 314 313 315 318 318 319 321 321 322 331 335 337 338 340 339 340 341 342 342 342 343 345 344 342 341 343 343 342 343 341 339 341 342 340 340 339 338 339 339 339 338 335 336 336 336 334 335 334 333 332 332 329 328 326
303 304 305 305 305 304 305 305 305 304 303 303 302 304 305 303 303 305 304 303 302 302 302 302 302 302 303 304 304 304 304 305 305 305 306 307 307 308 308 309 309 310 312 312 314 315 317 317 318 321 321 322 329 334 335 337 339 339 340 342 340 339 339 339 339 342 342 342 342 342 340 340 343 341 339 340 340 339 338 338 337 337 338 338 337 337 336 335 334 333 334 334 332 331 329 328 324
305 303 304 304 305 304 305 305 304 304 303 303 305 304 302 303 300 304 302 302 302 302 302 302 302 303 303 302 303 303 303 304 304 305 306 306 307 308 309 308 309 311 311 312 314 315 316 315 317 321 322 323 330 332 334 336 337 339 339 338 338 336 337 338 338 337 339 338 338 339 337 341 340 339 337 338 339 339 337 336 337 337 337 337 337 336 334 334 334 333 334 333 332 331 329 327 324
304 303 304 304 303 305 305 305 304 304 304 305 303 301 302 304 303 302 301 301 302 302 302 302 302 302 302 302 302 302 303 303 304 305 306 307 308 309 310 310 310 310 310 312 313 314 313 314 316 322 324 326 330 332 331 334 336 338 338 338 336 331 333 332 332 333 333 333 334 335 336 336 337 336 338 338 338 337 337 337 338 337 336 335 334 334 334 333 334 334 334 332 332 331 329 328 325
304 303 304 304 303 305 305 304 304 304 304 304 301 301 304 304 304 301 301 302 302 302 301 301 302 301 301 301 301 301 302 302 303 304 305 307 308 307 308 308 308 307 310 312 311 311 312 313 317 323 325 329 329 330 332 334 335 334 330 330 331 330 330 328 328 328 327 329 330 332 333 333 334 334 335 336 334 334 334 337 337 335 334 334 333 332 333 332 332 332 332 329 327 327 326 325 323
304 303 304 303 305 304 305 303 305 304 303 303 301 302 302 302 301 298 300 302 302 301 301 301 301 300 300 300 301 301 301 301 301 303 305 306 306 305 306 307 306 306 309 308 308 309 310 315 321 323 326 330 333 331 330 329 329 328 327 325 326 327 326 325 325 324 324 325 327 329 331 330 331 332 333 332 332 331 331 330 330 330 329 331 332 331 332 332 331 328 326 325 325 325 324 323 322
304 303 303 303 304 305 305 304 303 304 302 303 302 302 302 301 299 300 299 302 302 301 300 300 300 300 300 300 300 301 301 302 302 303 302 303 303 303 304 303 304 305 307 305 307 309 312 315 321 323 325 325 324 325 325 324 323 323 324 323 321 322 322 323 322 322 321 323 325 326 327 328 329 329 329 330 329 327 327 326 325 324 325 326 328 329 329 328 327 326 324 323 323 322 321 320 319
303 303 300 303 305 303 305 303 303 302 301 301 303 301 298 298 299 300 301 301 301 301 300 300 300 300 300 300 300 301 301 301 302 302 301 302 303 303 303 303 303 303 305 306 307 309 310 313 319 320 323 323 321 321 321 320 320 320 321 320 319 320 320 319 319 319 320 321 323 324 324 326 327 326 325 325 325 325 324 323 322 321 322 323 323 325 325 325 325 324 322 322 321 321 320 320 319
303 303 301 301 302 302 304 303 302 301 301 302 302 294 299 299 300 299 301 301 301 301 300 300 300 300 299 299 300 300 300 301 301 301 301 301 302 302 302 303 302 303 304 306 307 308 311 315 318 318 318 317 317 316 316 316 316 316 317 317 316 316 316 315 314 316 316 317 318 319 321 323 324 325 324 323 322 322 321 321 321 321 321 321 322 323 320 321 320 319 320 320 316 318 318 318 318
300 302 302 298 298 299 302 303 302 301 300 301 302 295 299 299 299 301 301 301 301 300 301 300 300 299 299 299 299 300 300 300 300 300 300 301 301 302 301 301 302 302 303 304 305 308 311 314 315 314 314 315 314 312 311 311 312 312 311 311 311 312 311 311 310 311 312 313 314 314 315 316 318 319 322 322 321 321 319 319 319 319 320 321 321 321 320 320 319 318 319 318 317 317 317 316 316
302 298 297 301 298 300 301 303 302 300 299 302 300 296 299 299 300 300 301 300 301 300 301 300 300 299 298 299 299 299 299 300 300 300 300 300 300 301 301 301 302 301 302 303 305 309 309 311 313 311 310 311 310 309 308 308 308 307 307 307 308 309 308 308 308 308 309 309 310 310 311 312 314 314 315 317 318 318 318 318 318 319 319 319 319 319 319 319 318 316 316 317 318 317 317 317 317
301 298 297 298 300 300 300 300 302 301 301 301 300 297 300 298 300 300 301 301 300 300 301 300 299 298 298 298 298 299 299 300 300 299 299 300 300 300 300 300 301 301 301 303 305 307 308 309 310 310 308 308 308 307 307 306 305 305 304 304 305 305 305 305 306 306 307 307 307 307 308 309 311 312 313 313 312 312 311 311 312 314 316 316 315 316 315 316 317 315 313 313 315 316 315 315 314
299 301 297 300 298 300 298 299 302 302 301 299 301 298 299 300 300 300 300 301 300 300 300 299 299 298 298 298 298 299 299 300 299 298 298 299 300 300 300 301 301 301 302 303 305 306 307 308 309 309 308 307 307 306 306 305 304 304 304 304 303 303 303 304 304 305 304 305 305 305 306 306 307 309 311 312 312 311 310 309 309 310 310 311 311 310 310 312 313 313 312 310 309 310 309 308 308
298 299 298 298 299 299 298 298 300 301 300 299 301 299 300 300 300 299 300 300 300 300 300 299 299 298 298 298 298 298 298 299 297 297 298 298 299 300 300 300 301 301 302 303 305 307 308 308 308 309 308 307 307 306 306 305 305 304 303 303 302 302 302 302 303 302 303 303 303 304 305 305 305 307 308 308 309 309 309 308 308 308 308 308 307 307 307 308 310 310 309 311 311 308 307 307 307
299 299 298 299 297 298 298 301 300 301 299 299 299 298 300 302 299 300 299 299 299 300 300 298 298 298 298 297 298 298 298 297 297 297 298 299 299 299 300 300 301 301 302 303 304 306 307 308 308 308 309 309 309 308 308 307 305 304 302 302 301 300 300 300 300 300 300 300 301 302 302 303 303 304 305 306 306 306 306 306 306 306 306 305 304 304 304 304 305 307 308 308 308 307 306 306 306
300 300 299 297 298 299 301 300 300 301 298 299 300 300 301 302 302 299 299 299 299 299 298 298 298 297 297 297 297 297 297 296 298 297 298 298 299 299 300 300 300 300 301 302 303 304 305 306 306 305 306 308 309 308 307 306 303 302 301 300 298 298 298 298 297 298 298 298 298 299 299 299 300 300 302 303 303 303 304 304 304 304 304 303 303 302 303 303 304 304 305 309 306 305 303 304 304
299 298 298 297 299 296 301 300 298 301 298 298 301 300 300 301 303 301 299 298 297 298 298 298 298 297 297 297 297 297 296 297 297 297 297 298 298 299 299 299 299 300 299 301 302 302 304 304 304 305 305 305 305 305 304 302 301 300 298 297 296 296 296 295 295 295 296 296 296 297 297 297 297 298 298 299 299 300 300 300 301 301 301 301 301 301 301 301 302 302 302 303 305 303 301 302 302
299 297 298 297 297 300 302 299 299 299 297 296 299 298 299 301 303 300 298 298 299 300 300 299 298 297 296 297 297 296 296 296 296 296 297 297 298 298 299 298 298 299 299 300 301 302 303 303 303 304 304 303 302 303 302 300 299 299 298 296 295 294 295 295 295 295 295 295 295 295 296 296 296 296 296 297 297 297 297 297 297 297 298 298 296 296 297 297 298 299 300 299 301 303 302 302 301
298 297 295 294 299 298 295 298 297 298 297 297 298 296 298 301 303 298 299 299 299 297 296 297 297 297 296 296 297 296 296 295 295 296 296 297 298 298 298 298 298 299 299 299 299 300 302 302 303 303 302 301 300 299 298 298 297 297 296 296 295 294 293 294 294 294 294 294 293 294 295 295 295 295 295 296 296 296 296 295 295 295 295 296 295 293 293 294 295 295 296 296 298 298 298 299 301
299 299 298 297 298 299 297 298 297 298 298 298 297 295 296 299 299 297 296 296 295 294 295 295 296 297 298 297 297 297 296 296 295 295 296 296 296 296 297 297 298 298 297 297 298 299 300 301 301 302 301 300 299 298 298 297 296 295 295 295 295 295 295 293 293 292 292 292 293 293 293 295 295 294 295 295 295 295 295 295 295 295 294 295 295 294 293 293 294 294 294 294 294 295 294 294 297
298 300 298 299 300 298 299 300 296 296 296 297 296 290 293 300 301 300 293 293 293 294 294 294 294 295 295 294 295 296 297 297 296 295 296 296 296 296 296 297 297 297 296 295 297 298 299 300 300 301 301 301 300 299 299 298 297 296 295 294 292 292 291 291 290 290 291 291 291 293 294 294 294 294 294 294 294 294 294 294 294 294 294 293 294 293 293 293 293 293 294 293 292 293 293 292 291
295 298 301 300 299 299 299 298 296 291 290 295 297 290 289 298 297 299 293 294 294 293 294 294 294 294 294 295 295 295 295 294 295 295 295 295 295 296 295 296 296 295 294 295 296 297 298 299 299 300 299 299 299 299 300 299 298 297 296 294 293 291 290 291 292 292 292 292 293 292 292 293 293 293 293 293 293 293 293 293 293 293 293 293 293 292 292 292 292 293 293 293 292 292 292 290 290
295 298 300 300 299 298 298 298 297 294 300 298 294 295 289 289 296 297 296 294 293 292 293 294 294 294 294 295 295 295 295 295 294 294 295 295 295 295 294 294 294 293 294 295 295 296 296 297 297 297 297 297 297 297 297 297 295 295 294 293 292 292 291 290 292 292 293 292 292 291 291 292 292 292 292 292 292 292 292 292 292 292 291 291 291 291 291 292 292 293 292 292 292 291 291 290 289
298 297 300 299 299 299 299 297 295 296 293 289 293 296 288 288 295 295 295 293 293 293 293 293 294 294 295 295 295 295 295 295 295 294 294 294 293 293 293 292 292 293 294 294 294 294 295 295 295 295 295 295 295 296 296 296 295 294 293 293 291 292 292 292 292 293 292 292 291 292 291 291 291 291 292 292 291 291 291 291 291 290 290 290 290 291 291 291 291 291 290 290 290 290 291 291 290
298 299 300 299 299 298 299 295 294 294 290 286 292 294 288 289 296 293 294 294 295 295 294 294 294 294 295 295 295 295 295 295 295 295 294 293 293 292 292 292 292 292 292 293 293 294 294 294 294 293 293 294 294 295 295 295 295 294 293 292 291 291 292 292 292 291 291 292 291 291 291 291 290 290 291 291 291 291 291 291 290 290 290 289 289 290 290 290 290 290 290 290 290 289 290 290 289
300 301 299 297 297 296 295 295 293 290 285 287 293 295 292 286 295 296 293 295 297 299 296 295 295 295 295 295 295 295 294 294 294 294 293 293 292 292 292 291 291 292 292 293 293 293 293 293 293 292 292 293 293 294 294 294 294 294 293 293 292 292 292 292 291 291 291 291 290 290 290 290 290 290 290 290 290 290 290 290 289 289 289 289 289 289 288 289 289 289 289 290 289 288 288 289 288
301 297 296 295 292 294 292 290 292 285 284 291 294 294 294 284 291 298 300 299 300 299 295 294 294 294 294 295 295 294 294 293 293 293 292 291 290 290 291 290 291 291 291 292 292 293 293 292 292 291 291 292 293 293 294 294 294 294 294 294 293 293 292 292 291 291 291 291 291 290 290 290 290 290 289 289 289 289 289 289 289 289 288 288 288 288 288 288 289 289 288 289 288 288 288 288 287
298 296 295 289 288 287 284 287 283 284 285 287 289 292 290 289 294 299 298 298 298 300 299 296 295 294 295 295 295 294 294 293 293 292 292 291 290 290 290 290 290 290 290 291 292 292 292 291 291 291 290 291 292 293 293 293 293 293 293 293 293 293 292 292 292 291 292 291 291 290 290 289 289 288 288 288 288 288 288 288 287 287 287 287 287 288 288 288 288 288 287 288 288 287 287 287 287
294 293 291 288 286 284 281 285 287 287 287 287 288 292 286 293 295 300 300 298 299 299 300 299 296 295 295 295 294 293 293 293 293 292 292 291 291 290 291 290 290 290 290 290 291 291 291 291 291 290 290 291 291 292 292 292 292 292 293 293 292 292 292 292 292 291 291 291 291 290 289 288 288 287 287 287 287 288 287 287 287 287 287 287 287 287 287 287 287 287 287 286 286 286 286 287 286
294 298 295 291 290 286 281 285 283 284 286 284 289 286 286 286 291 295 295 293 295 296 296 299 298 297 296 295 294 293 293 292 292 292 291 291 291 290 290 290 290 290 289 289 290 290 291 290 290 289 289 290 291 291 291 291 291 292 292 292 292 292 292 291 291 291 290 290 289 289 289 288 288 287 287 287 287 287 287 287 287 286 286 286 286 286 286 286 286 286 286 286 286 286 285 286 286
296 298 299 293 290 294 287 287 286 285 285 283 283 286 292 293 294 295 293 293 293 293 295 297 296 296 296 294 293 292 292 292 292 291 291 291 291 291 290 290 290 289 289 289 289 290 290 290 289 289 289 290 290 290 291 291 291 291 291 291 291 291 291 290 290 290 290 289 289 288 288 288 288 287 287 287 287 287 286 287 287 286 286 286 286 285 285 285 285 285 285 285 284 286 284 285 285
294 295 289 293 298 295 287 285 285 284 285 283 288 287 291 297 294 293 293 292 291 292 293 295 296 295 295 293 293 293 292 292 292 292 291 291 290 290 290 289 289 289 288 289 289 290 290 289 289 289 289 290 290 290 290 290 291 290 290 290 290 290 290 289 289 288 289 289 289 288 288 287 288 287 287 287 287 287 286 286 285 285 285 285 285 284 284 284 284 285 284 284 284 284 284 284 284
295 289 293 297 300 297 291 285 286 284 282 285 288 286 288 288 287 293 292 291 291 291 291 294 295 295 293 293 293 293 293 293 292 292 292 291 290 290 290 290 289 288 288 288 288 290 290 290 289 289 289 289 290 290 290 290 289 289 289 290 290 289 289 288 288 288 289 288 288 288 288 287 286 286 287 287 286 286 285 285 285 284 284 284 284 284 283 283 284 284 283 283 284 283 283 283 283
296 294 302 292 287 285 291 287 281 281 281 284 287 288 289 291 291 290 292 292 292 291 291 291 292 293 293 294 294 293 293 293 292 291 291 290 290 290 289 289 289 289 289 288 289 289 289 290 289 289 289 289 289 290 289 290 290 290 290 289 289 288 289 288 289 289 288 287 287 287 286 286 286 286 285 285 285 284 284 283 284 283 283 283 283 283 283 282 283 282 282 283 283 282 281 281 282
297 297 295 300 294 290 288 288 288 288 283 283 284 286 285 293 295 295 295 294 295 292 290 290 292 293 294 294 294 293 293 293 292 291 291 291 290 290 289 289 288 288 288 288 288 289 289 289 289 289 289 289 289 289 289 289 289 289 289 288 288 288 288 288 288 288 287 286 286 286 285 285 284 284 284 284 283 282 282 282 282 282 282 282 281 281 281 281 281 281 281 281 281 281 280 280 280
289 290 291 293 290 293 293 293 289 287 285 285 285 284 288 295 299 298 297 297 296 294 292 292 292 293 294 295 294 294 294 293 293 292 291 291 290 289 289 289 288 288 288 288 288 288 288 289 288 289 288 288 288 288 289 289 289 288 288 287 287 288 287 288 287 287 286 285 285 285 284 284 284 283 283 283 282 282 281 281 281 281 280 280 280 280 280 280 280 279 279 280 280 279 279 279 279
292 291 290 292 289 287 284 283 293 288 286 284 284 283 289 295 294 297 298 299 298 297 295 294 294 294 294 295 296 295 294 294 293 292 292 291 290 289 289 289 288 288 288 287 288 287 287 288 288 288 288 288 287 288 288 288 288 288 287 287 287 287 287 287 286 286 285 284 284 283 283 283 282 282 282 281 281 281 280 280 280 280 280 279 279 279 279 279 278 278 278 279 279 278 278 278 278
Wind_Speed
9 5 5 5 5 4 5 3 4 3 4 5 5 3 5 2 1 3 4 5 3 6 5 3 4 3 7 5 6 8 9 9 9 6 6 3 4 6 4 5 4 3 9 9 11 11 10 6 7 8 11 11 11 11 12 13 13 13 12 12 10 10 9 8 8 7 8 8 8 8 8 8 8 8 8 8 8 7 8 7 8 9 10 10 10 11 12 12 12 12 12 13 13 13 13 12 12
7 6 5 4 3 3 3 1 3 3 2 4 4 3 6 4 5 6 5 7 6 5 4 3 2 2 4 4 2 4 10 10 8 7 9 6 8 8 5 3 4 5 7 8 10 11 11 10 6 8 12 12 11 11 11 12 12 12 12 12 11 11 10 9 8 8 8 7 8 9 8 8 8 8 8 7 7 7 7 7 7 8 10 10 10 10 11 11 11 12 12 13 13 13 13 13 12
6 5 4 4 4 4 2 3 4 2 4 4 5 5 3 2 5 3 6 6 6 4 2 1 1 3 3 4 4 5 8 8 7 6 7 6 5 9 8 2 2 1 6 7 8 11 9 10 7 7 12 12 12 11 12 11 11 11 11 11 10 10 10 9 8 8 8 7 8 8 8 8 8 8 7 6 6 6 6 6 7 7 9 10 10 9 10 9 11 11 12 12 13 13 13 13 12
6 3 5 3 2 2 4 4 5 2 2 5 5 4 2 4 5 5 5 6 5 2 1 1 2 3 7 3 7 3 8 7 9 8 5 7 7 8 7 4 1 1 3 6 7 9 8 10 7 7 10 13 13 12 12 11 11 10 9 9 9 9 9 8 7 8 8 8 7 8 7 7 7 7 7 6 6 6 6 5 6 6 8 9 9 9 10 9 10 11 10 11 12 12 12 12 12
5 3 2 4 4 4 3 2 2 3 3 1 5 5 4 3 6 4 6 4 4 3 4 3 2 3 4 5 4 3 7 5 11 12 6 6 8 7 5 4 1 1 4 6 7 7 7 13 7 5 9 10 13 13 13 12 11 11 10 9 9 8 8 8 7 7 7 8 8 7 7 6 6 6 6 6 6 5 5 5 5 7 8 8 9 8 8 8 9 10 10 11 11 11 11 11 12
5 4 2 4 2 3 3 4 4 3 6 4 6 6 5 5 5 4 6 4 4 2 4 3 6 1 4 6 7 5 11 3 6 9 8 7 10 8 5 2 3 1 6 6 6 5 9 11 8 3 8 10 12 13 12 12 12 11 11 10 9 8 8 7 7 6 6 7 8 8 8 7 6 6 5 5 5 6 5 5 5 7 8 7 7 7 7 9 9 10 10 11 11 11 11 11 11
3 3 3 3 2 2 4 1 3 4 5 6 8 7 5 5 5 1 7 6 3 3 2 4 3 1 5 5 10 8 9 7 4 6 7 6 6 7 6 5 3 6 4 5 5 4 12 10 8 2 4 8 9 11 13 13 11 11 11 11 10 10 9 8 7 7 7 7 6 7 7 7 6 6 6 5 5 5 6 6 6 6 7 6 6 6 5 7 10 10 10 10 11 11 11 11 11
2 4 2 5 3 4 2 3 4 1 5 5 5 7 5 5 2 0 4 5 4 1 3 3 1 5 8 3 4 7 11 10 8 6 7 6 6 6 7 7 6 6 5 3 4 8 8 8 7 3 2 8 8 9 11 12 12 11 10 11 11 10 9 9 8 8 7 7 7 6 6 6 5 6 6 5 4 5 5 5 6 6 7 7 5 7 9 10 11 10 10 10 11 11 11 11 11
2 4 1 4 3 1 1 2 5 4 7 3 5 6 4 4 2 3 4 4 5 2 2 4 5 7 7 6 8 8 9 7 6 9 8 8 7 6 5 7 7 5 4 4 2 7 7 7 6 3 2 3 8 9 10 11 11 11 11 10 11 10 10 9 9 8 7 7 7 6 6 5 5 5 5 5 4 4 4 4 5 7 7 6 8 9 10 11 10 10 10 11 11 11 11 11 11
2 2 2 3 2 4 3 4 4 4 5 4 4 5 4 2 2 3 1 4 5 0 5 3 5 5 2 7 8 6 6 8 6 9 9 8 7 5 6 7 7 6 4 4 3 2 7 6 6 5 4 2 5 7 7 9 9 10 8 8 10 10 9 9 8 8 7 7 8 6 6 6 6 6 6 5 4 4 5 4 5 7 7 7 8 9 10 10 10 10 11 11 11 11 11 11 11
3 2 2 4 4 2 4 5 4 5 5 5 5 4 4 2 1 1 2 4 1 2 4 1 3 3 3 6 6 6 9 10 11 11 8 6 6 5 5 6 6 6 5 3 4 1 3 5 6 3 5 5 3 1 5 7 10 10 10 8 9 10 8 9 9 8 7 6 6 6 6 6 6 8 6 5 1 4 4 5 6 6 7 7 8 9 10 10 10 11 11 11 11 11 11 11 11
3 3 3 4 3 2 2 4 5 5 6 5 5 4 2 0 2 4 1 2 3 4 3 5 3 4 4 4 6 7 11 14 11 8 7 5 5 6 5 5 6 6 5 4 1 1 1 4 5 5 2 3 4 5 3 5 6 8 8 8 7 8 8 6 6 7 7 7 6 6 7 5 3 2 4 6 3 1 3 5 6 6 6 7 8 10 10 10 10 10 10 11 10 11 11 11 11
4 1 4 5 2 2 5 3 5 6 6 6 5 4 0 2 2 2 1 2 1 3 5 5 4 4 3 2 7 8 11 12 9 8 6 5 5 5 5 6 6 6 5 4 3 3 1 1 3 7 6 3 1 2 3 4 4 5 6 6 7 6 6 7 6 5 5 6 5 5 3 2 2 5 3 4 2 1 4 3 4 6 6 6 8 9 9 9 10 10 10 10 10 10 10 11 10
3 2 3 2 1 1 3 3 6 6 6 7 4 3 1 2 2 3 3 4 2 3 5 4 3 3 6 2 6 5 7 11 10 7 5 4 4 5 6 6 6 6 5 5 5 3 2 1 1 3 5 6 8 7 5 3 2 4 4 3 2 2 5 7 7 6 6 3 4 3 3 3 4 4 3 5 5 3 2 2 3 3 6 5 7 8 9 10 10 10 10 10 10 9 9 10 10
2 1 3 1 2 4 2 4 6 7 4 7 4 1 3 2 1 2 4 6 5 5 3 2 3 5 3 4 5 6 9 11 10 7 4 2 3 5 4 5 6 6 6 5 5 3 2 1 1 2 3 5 7 7 7 9 7 4 4 5 6 3 2 2 3 7 7 5 6 5 5 3 5 6 3 3 5 4 4 2 2 2 4 5 7 9 9 10 10 10 9 9 9 8 8 8 8
3 3 2 3 4 5 5 3 2 6 5 5 5 3 3 5 1 3 3 4 4 2 4 2 2 4 6 4 5 6 9 9 8 6 3 2 1 3 4 4 5 6 5 5 5 5 3 1 1 2 2 4 5 6 7 7 8 6 5 3 6 7 5 4 2 4 4 3 5 7 7 6 6 5 6 4 7 6 5 2 5 3 3 4 7 8 10 10 10 10 9 8 8 7 7 7 7
2 3 4 3 4 5 6 4 5 4 8 6 5 2 3 5 5 1 2 4 6 1 3 6 5 5 7 5 5 6 7 7 6 3 1 0 2 3 3 3 2 4 3 5 5 5 3 4 2 0 2 4 4 5 5 6 6 8 5 6 7 7 7 6 7 5 4 3 3 4 5 6 6 5 6 5 6 6 6 5 5 5 4 3 6 8 10 10 10 9 8 8 8 7 6 6 7
3 4 3 4 2 4 5 3 4 5 5 6 4 2 2 4 4 5 2 6 6 6 5 6 8 10 7 5 4 5 6 7 8 6 5 3 2 2 2 4 3 4 4 3 5 6 4 3 3 1 1 3 4 4 3 4 4 6 7 7 7 6 7 7 7 7 6 5 5 4 5 5 5 5 5 5 5 5 6 7 6 5 5 4 4 8 10 10 10 9 8 7 7 6 6 4 5
3 2 3 1 1 5 2 4 4 3 4 3 3 1 2 2 3 3 6 5 6 5 7 7 8 8 7 7 6 7 7 8 8 8 8 8 5 5 4 3 4 4 4 4 4 6 5 4 4 4 2 1 3 5 3 3 4 4 5 6 5 5 6 8 7 8 7 6 6 5 5 5 4 4 4 5 3 6 5 10 6 4 6 6 7 8 10 12 11 9 8 7 5 4 4 2 3
2 4 3 3 4 5 4 1 4 5 3 3 2 2 3 2 2 4 5 7 6 5 4 8 8 6 5 6 7 7 7 8 8 8 8 8 7 6 6 5 5 5 5 4 4 4 6 5 5 3 2 1 2 4 4 4 4 4 3 5 5 6 5 4 6 6 6 7 5 5 5 4 4 3 8 7 3 4 5 7 8 7 5 7 9 7 7 8 9 7 6 7 5 3 2 3 3
2 4 3 5 4 3 4 2 4 3 2 1 0 1 5 3 2 5 6 8 9 8 8 6 6 5 5 6 6 6 6 7 7 8 8 8 8 6 6 5 5 5 5 4 5 5 6 6 6 4 3 2 5 4 4 4 3 3 3 3 4 4 5 2 2 3 4 4 5 4 3 3 4 4 4 4 5 5 5 5 5 6 6 6 8 7 6 5 5 5 4 4 2 3 1 3 3
4 4 4 4 3 1 6 2 4 3 2 2 0 4 2 3 5 6 6 7 2 4 5 6 6 6 5 5 5 4 5 6 7 7 8 8 8 8 7 6 5 5 6 5 6 6 7 7 6 5 4 3 4 5 5 3 1 3 3 3 3 2 2 3 1 2 3 4 3 1 2 3 4 4 4 4 4 4 4 4 5 5 7 7 8 6 5 6 5 4 4 3 1 2 3 2 3
3 4 2 1 2 2 4 3 3 1 1 3 4 2 2 5 6 4 5 4 5 4 3 4 4 4 4 3 4 4 5 7 7 8 8 8 8 8 8 7 7 7 6 7 6 6 7 8 8 6 4 2 5 4 4 3 4 2 2 2 1 2 1 2 2 1 2 3 3 3 3 3 3 4 5 3 4 4 4 3 3 3 5 5 6 5 4 4 5 4 3 2 1 2 1 2 2
5 1 3 3 1 2 2 1 4 3 4 4 3 3 7 5 9 4 4 6 6 5 4 4 4 4 2 3 4 4 5 6 6 6 6 6 7 8 7 7 7 6 6 7 7 7 7 9 8 6 2 3 4 5 5 5 4 3 3 3 1 4 2 5 6 5 6 7 8 7 6 4 3 4 4 7 5 4 4 3 2 3 3 4 4 4 4 4 4 4 2 2 1 1 0 1 1
4 3 3 3 1 3 2 3 4 5 6 5 2 6 9 7 4 3 4 5 4 5 4 3 3 3 3 4 4 4 5 5 5 4 4 4 5 6 7 6 7 6 7 8 8 7 7 8 8 6 1 4 4 5 5 4 4 3 4 5 8 10 9 8 7 8 8 7 8 8 7 5 4 3 4 5 4 6 5 3 3 4 3 3 2 1 2 3 3 3 3 2 2 1 2 1 1
1 3 1 2 4 3 4 5 7 7 4 4 5 9 8 3 1 6 4 5 5 4 3 3 3 2 3 4 5 5 5 5 5 6 5 4 5 7 8 8 8 8 8 7 8 7 8 9 8 5 3 7 2 4 5 4 5 8 9 8 7 7 7 7 7 7 7 7 7 7 7 6 6 6 6 6 7 6 6 4 4 3 3 4 4 3 3 3 2 2 4 6 7 6 3 3 3
2 1 3 6 5 4 5 7 5 4 6 6 8 8 6 3 5 4 4 6 6 4 3 3 1 2 4 4 4 4 5 6 6 5 5 5 5 7 7 7 8 8 8 8 8 8 8 9 8 7 8 7 3 8 9 9 8 8 8 7 7 7 6 6 6 7 6 7 7 7 7 7 6 6 6 6 5 4 5 6 6 6 6 5 5 6 5 5 4 5 4 4 4 4 3 3 4
1 3 6 9 9 7 6 6 7 4 6 7 8 6 4 6 3 2 7 7 6 5 4 3 2 2 2 3 3 3 3 4 3 3 5 5 5 5 7 6 8 8 7 8 7 8 8 9 8 8 7 7 9 8 8 9 7 7 8 7 7 6 6 6 6 6 6 7 8 7 7 7 6 6 7 6 6 5 5 8 7 7 5 5 6 5 5 5 4 4 5 4 3 3 4 4 3
1 4 6 3 6 9 9 7 5 5 3 4 4 4 7 9 8 8 7 7 6 5 4 4 3 3 2 2 2 1 2 2 3 3 4 4 4 5 6 6 7 6 5 7 8 8 8 7 7 8 8 8 9 9 9 7 6 7 8 8 7 6 7 7 7 7 7 7 7 8 8 8 7 6 6 6 6 6 6 6 6 5 5 5 5 6 6 4 4 4 4 4 4 3 3 3 1
3 6 6 8 9 11 8 4 4 5 3 5 5 6 9 14 8 8 7 7 6 5 5 4 3 3 2 2 2 3 2 1 3 4 4 4 4 5 6 7 8 6 6 6 8 9 7 5 5 6 8 10 9 9 8 7 8 7 8 8 8 7 7 8 8 8 8 7 7 9 9 9 8 7 6 6 6 6 7 7 6 5 5 4 5 5 4 2 3 3 3 3 3 2 2 2 1
5 1 3 7 6 3 8 5 6 6 6 7 5 7 2 10 8 7 6 7 8 7 6 4 3 3 3 2 1 2 3 2 3 4 4 5 5 5 6 6 7 7 5 6 8 8 7 7 6 6 8 9 10 10 10 9 9 9 8 8 8 8 8 9 8 8 8 8 8 9 11 10 10 9 8 5 6 6 7 7 7 6 5 5 4 4 3 3 3 3 2 3 2 1 2 2 1
5 4 6 6 6 3 7 6 6 5 4 7 8 6 8 9 8 7 5 7 7 7 6 4 4 3 3 3 2 2 2 3 2 4 5 5 5 4 5 6 6 6 6 6 6 6 7 8 8 8 9 11 10 9 9 9 10 10 9 9 8 9 9 9 9 8 8 8 8 9 10 10 11 11 10 9 7 8 7 7 7 7 7 5 5 5 5 5 5 4 5 4 1 1 1 1 2
6 7 8 8 5 3 6 7 3 1 4 8 10 8 2 8 9 6 5 6 8 8 6 5 4 4 4 3 3 2 4 4 2 3 5 4 5 5 4 5 5 5 5 6 6 5 7 7 7 9 10 10 10 11 11 11 10 10 10 10 10 10 9 9 8 8 8 9 8 9 9 9 10 10 10 10 9 9 9 9 9 10 9 8 8 8 7 7 5 4 6 6 6 3 3 3 2
7 7 7 7 7 4 6 6 4 4 6 7 10 9 11 5 10 9 6 7 8 7 7 6 5 4 3 2 3 3 3 3 3 3 4 5 4 5 4 5 5 5 5 5 5 5 6 6 8 8 8 8 8 9 9 9 9 9 9 9 10 10 10 9 8 8 9 9 9 9 10 9 10 10 10 8 8 9 8 8 8 10 9 9 8 8 8 8 7 7 6 6 7 6 5 6 5
6 4 5 7 8 10 10 5 7 4 6 7 8 11 13 6 10 10 9 7 8 7 6 6 5 5 4 3 3 3 2 3 3 3 4 4 4 4 4 5 4 5 4 5 5 5 5 6 6 8 9 10 10 10 11 10 10 10 9 9 10 10 9 9 9 9 9 9 9 10 10 9 10 11 11 10 9 9 9 9 9 9 8 8 8 8 8 8 8 8 8 6 5 6 6 6 7
9 8 7 7 7 6 6 4 7 5 7 8 10 12 11 10 10 9 8 9 8 7 5 4 5 3 3 3 3 3 2 3 3 4 3 4 4 4 4 4 4 4 4 4 5 5 5 6 6 6 7 7 7 7 7 7 7 7 8 8 10 10 9 9 9 9 9 9 10 10 10 10 10 10 11 10 10 9 9 9 9 9 9 9 9 10 9 9 10 9 7 8 7 6 8 8 8
3 4 8 9 10 11 6 5 4 4 4 11 13 14 15 14 10 11 10 8 7 7 7 6 5 4 4 3 3 3 3 2 4 3 3 3 3 4 3 3 3 4 5 5 6 6 7 6 6 7 6 6 5 6 6 6 7 7 8 9 9 8 8 9 9 9 9 10 11 11 11 10 11 11 11 11 10 10 9 9 9 10 9 10 10 10 10 11 10 9 7 4 7 8 8 9 10
8 9 9 9 9 10 8 1 5 2 5 9 9 11 13 13 12 10 9 9 10 10 9 8 7 6 4 5 4 4 3 4 3 3 4 3 3 3 3 3 3 4 5 6 6 6 6 6 7 7 6 7 8 7 7 8 8 7 7 7 8 8 8 8 9 9 9 9 11 11 11 11 12 12 11 11 11 11 10 9 10 10 10 9 10 10 11 10 11 11 10 8 7 8 8 10 10
9 8 8 8 9 9 7 6 6 4 3 9 11 15 14 13 15 10 11 10 8 8 7 6 7 7 5 5 5 5 4 5 4 4 3 4 4 3 3 3 4 4 5 6 5 5 6 5 6 6 6 7 7 8 8 8 9 9 9 8 8 9 9 9 9 9 9 10 11 11 11 12 12 11 12 11 10 11 10 10 10 9 10 9 9 10 11 11 11 12 12 10 8 7 7 8 10
8 7 8 10 6 5 6 6 1 4 5 4 4 8 11 13 7 10 9 9 7 5 4 4 3 6 7 7 6 6 6 6 6 6 6 5 4 4 4 4 4 3 4 5 5 5 5 5 6 7 7 7 8 9 10 11 12 12 11 11 10 10 9 9 11 10 11 11 12 11 11 11 11 11 12 11 10 11 11 10 9 9 9 9 9 9 10 11 10 10 10 11 10 8 8 8 9
9 11 10 8 9 8 8 4 2 3 9 8 9 11 13 13 15 8 6 4 4 5 5 5 5 4 4 4 4 5 7 7 7 7 6 6 5 4 4 4 4 5 5 5 5 4 4 6 7 7 8 8 9 10 11 11 12 12 11 11 10 10 9 9 9 9 10 10 10 11 11 11 11 11 11 12 10 11 10 10 9 9 9 9 8 9 9 10 10 9 10 9 11 8 8 8 8
9 12 13 12 10 11 10 6 5 8 9 8 7 6 9 8 14 13 8 6 8 8 9 10 10 9 7 8 9 6 5 5 7 7 7 6 6 6 5 5 5 5 5 4 4 5 5 6 7 7 7 7 7 8 9 8 8 8 8 7 8 7 8 8 8 8 8 9 9 9 10 11 11 11 10 11 11 10 10 10 10 9 9 9 9 9 8 9 10 10 10 9 9 10 7 7 8
9 6 8 12 11 11 10 10 1 7 6 3 2 8 8 1 4 7 7 7 9 7 10 10 10 10 9 9 9 8 8 6 5 6 6 6 6 6 5 5 5 5 4 4 4 5 6 6 6 6 6 6 5 6 5 5 6 6 8 8 8 8 9 8 8 8 8 8 8 10 9 10 10 11 10 10 10 10 10 10 9 9 9 8 8 8 9 9 8 9 8 9 8 8 9 7 8
9 4 0 3 5 8 9 8 9 9 7 4 5 6 9 10 5 5 5 7 8 8 9 9 9 9 10 9 9 9 9 8 7 8 7 6 6 6 5 4 4 4 4 4 5 5 6 6 6 6 6 6 5 6 7 7 8 8 9 10 9 9 9 10 8 8 8 7 9 9 9 9 10 9 9 10 10 10 9 9 9 9 8 8 8 8 8 8 7 7 9 9 8 7 8 8 7
2 2 1 2 3 6 6 6 7 7 5 8 7 8 4 9 4 7 9 7 9 10 11 11 10 10 11 10 10 10 9 9 8 7 8 7 6 5 5 4 4 4 4 4 5 5 5 6 6 7 7 7 7 8 8 9 8 8 9 9 10 8 9 8 7 7 8 8 9 8 8 8 9 9 9 9 9 10 9 9 9 9 8 8 7 7 7 8 9 8 8 8 8 7 7 7 7
3 4 6 5 2 2 3 5 6 6 6 12 8 10 7 12 6 6 5 5 9 10 12 13 13 13 12 11 11 11 9 8 7 8 8 7 5 4 4 4 4 4 4 5 5 5 5 6 7 8 8 7 7 8 9 9 9 8 9 9 11 9 8 8 7 8 8 7 8 8 7 7 7 8 8 9 9 9 9 8 8 8 8 7 7 7 7 8 8 7 8 8 8 8 7 6 7
9 6 5 4 3 3 2 4 4 4 12 11 9 12 10 9 4 7 7 7 9 7 9 10 12 13 13 12 13 11 10 9 8 8 8 7 5 5 4 5 5 4 4 5 5 6 6 7 8 9 8 7 8 8 9 9 8 8 8 9 10 10 9 8 8 8 7 7 8 8 7 7 7 7 7 8 9 8 8 8 7 7 7 7 7 7 7 6 6 6 6 7 8 8 7 6 6
8 4 5 4 2 3 4 3 4 7 13 4 8 13 14 10 3 5 4 5 5 10 13 15 17 16 15 13 13 12 11 10 9 8 8 7 6 5 4 6 6 5 5 5 5 6 6 7 8 10 9 8 8 8 9 8 8 9 9 9 10 9 8 7 8 8 7 8 7 7 6 6 7 7 7 7 8 8 7 7 7 7 7 7 7 6 6 6 5 5 5 5 5 6 6 6 5
6 7 7 6 3 3 6 5 8 11 9 3 2 5 6 17 14 2 7 4 7 6 9 15 18 17 16 15 15 12 11 11 10 9 9 8 8 8 7 7 6 6 6 6 6 6 7 8 9 10 9 8 8 8 9 9 9 9 8 8 8 8 8 8 8 8 6 6 6 6 6 6 6 6 6 7 7 8 6 6 7 6 6 6 6 6 6 7 6 5 5 5 5 6 5 5 4
10 11 9 7 8 9 7 8 6 6 2 1 3 2 8 6 9 18 13 7 4 6 4 13 17 19 18 16 14 12 11 11 10 9 9 9 9 8 7 7 7 6 7 6 6 6 6 7 8 9 9 8 8 8 8 9 9 8 8 8 8 7 7 7 6 7 6 6 5 6 6 6 6 7 6 6 5 6 6 6 6 6 6 6 6 6 6 6 6 4 5 5 5 5 5 5 4
13 10 11 9 7 4 8 7 9 5 1 3 2 4 5 6 3 6 7 4 5 3 3 7 14 15 15 14 12 12 12 11 10 10 10 10 9 10 8 8 7 7 8 7 6 7 7 8 8 10 10 9 9 8 8 9 8 8 7 7 7 6 6 6 6 6 6 6 6 6 6 6 6 5 5 4 4 4 4 4 4 4 4 5 5 5 5 5 5 4 4 4 4 4 5 5 4
9 9 7 10 12 4 10 2 3 1 0 3 5 6 3 5 5 5 3 5 4 4 4 7 13 13 14 13 13 12 12 12 10 10 10 10 10 10 9 8 8 8 8 7 7 7 7 8 9 9 10 10 9 9 8 8 8 7 7 7 7 6 6 6 6 6 6 6 6 6 6 5 5 5 4 4 4 4 4 4 4 5 4 4 5 4 5 4 5 4 4 4 4 4 5 5 4
9 8 10 9 6 3 1 1 2 0 2 10 6 5 7 4 5 7 6 5 6 5 7 9 13 15 15 13 13 13 13 12 11 11 11 12 11 10 9 9 8 8 7 7 8 7 9 9 10 10 10 9 9 9 8 8 8 8 7 7 6 6 6 6 6 7 6 6 6 5 5 5 5 5 4 3 4 4 4 4 4 4 4 4 4 5 5 4 5 4 4 4 4 5 5 5 4
9 8 9 5 2 5 2 6 2 3 10 7 8 10 8 7 7 8 8 7 8 8 9 11 13 14 15 13 14 14 14 13 12 11 11 12 11 11 9 8 8 9 9 9 9 8 8 8 10 11 10 11 9 9 8 8 9 8 8 7 6 6 6 6 6 6 5 5 5 5 5 5 5 4 3 3 3 3 3 4 3 4 4 4 4 4 4 4 5 3 4 3 3 4 5 4 4
3 2 5 9 7 6 8 2 9 7 9 7 8 12 12 11 8 5 9 10 11 11 11 11 14 15 15 14 15 14 13 12 12 13 12 12 12 12 11 10 10 9 9 9 9 8 8 8 9 9 11 10 10 8 8 8 7 6 6 6 7 6 6 6 5 6 5 6 6 5 5 5 4 4 4 4 3 3 3 3 3 3 4 3 4 4 4 4 4 3 4 3 4 4 4 5 4
2 1 5 3 3 5 8 9 3 3 10 5 7 7 8 10 10 13 14 13 12 13 12 14 16 17 16 15 16 17 16 14 14 14 13 13 13 13 12 12 11 11 10 9 9 8 9 9 10 10 9 9 9 9 9 9 7 6 7 6 6 6 6 6 6 6 5 6 5 5 5 5 4 4 3 4 3 3 3 3 3 3 3 3 4 4 4 4 4 3 4 3 4 5 5 5 5
8 6 9 5 4 3 4 4 7 5 6 8 10 10 4 5 9 12 12 13 13 16 15 13 13 15 16 17 17 17 17 15 14 14 14 14 13 12 11 11 10 9 9 9 9 9 9 9 10 10 11 10 9 9 8 8 7 7 8 7 7 6 6 6 6 6 6 5 5 5 4 4 4 4 3 3 3 3 3 2 2 3 3 3 3 4 3 4 3 4 4 4 4 4 5 5 5
13 14 16 16 12 8 8 9 5 4 3 6 5 12 2 3 4 1 4 8 11 13 14 13 14 15 16 15 16 16 16 16 15 15 14 13 13 12 12 10 9 10 10 10 9 9 10 10 10 10 9 9 10 9 8 8 7 7 8 7 7 6 6 6 6 6 6 5 5 4 4 3 4 3 3 2 2 2 2 2 2 2 2 2 3 3 3 3 3 4 4 3 4 5 5 5 5
Wind_Direction
280 278 306 288 275 272 280 204 239 128 236 108 121 217 78 20 74 200 103 200 138 67 30 13 13 332 352 20 359 34 44 20 23 18 62 71 90 65 80 67 67 157 154 171 140 148 171 157 171 164 158 158 157 152 147 144 140 139 139 136 137 136 137 138 133 134 132 127 126 126 119 111 104 98 98 90 87 85 94 101 105 107 107 105 99 94 90 85 77 69 63 59 54 46 40 37 36
307 309 273 278 267 279 185 104 278 144 115 116 70 62 95 115 232 47 64 44 39 45 19 10 8 351 293 301 339 225 64 49 43 71 97 85 107 66 67 53 41 138 153 162 149 163 173 161 166 160 162 158 157 155 150 148 145 142 141 140 140 141 140 146 143 143 135 136 135 130 126 120 112 107 99 98 91 92 91 104 115 114 108 102 98 97 87 79 77 69 63 58 52 45 38 33 29
313 311 294 225 252 251 322 214 261 150 175 114 93 67 151 186 71 74 47 46 43 32 21 44 337 248 251 215 203 350 92 63 62 66 81 99 174 33 30 19 48 112 157 163 162 166 173 160 152 171 163 164 157 156 156 153 149 145 143 143 144 142 142 146 153 144 141 141 141 135 128 124 121 112 104 102 95 87 89 95 111 114 113 109 97 84 84 83 76 72 64 56 51 46 38 31 24
284 284 302 287 212 214 224 211 268 260 56 84 115 115 50 63 86 56 56 57 49 338 337 154 217 57 309 112 60 226 88 80 46 3 81 49 26 348 10 32 146 257 141 175 168 155 187 131 150 162 168 164 161 159 157 156 153 148 146 146 147 144 143 146 156 147 144 145 142 135 132 128 122 112 104 97 92 88 87 84 102 117 111 102 102 99 83 77 79 78 69 60 52 47 38 29 22
270 263 277 271 283 192 291 307 325 277 117 321 108 122 120 82 82 69 76 77 70 356 328 42 193 68 35 31 342 4 16 112 54 43 23 75 6 3 9 41 273 154 163 175 178 158 131 129 133 155 170 167 163 160 159 160 157 155 152 151 151 149 147 147 155 153 147 149 142 138 134 129 118 113 107 100 89 91 91 98 103 105 106 103 98 91 91 86 82 77 68 60 53 46 37 30 23
256 263 223 266 297 5 251 201 204 64 43 4 126 106 97 67 79 66 98 91 74 26 11 309 9 115 138 50 25 42 3 24 3 59 345 23 6 359 15 345 8 119 158 162 176 162 136 117 121 143 173 168 164 165 160 163 164 160 158 154 155 159 154 154 160 162 159 154 151 149 142 137 130 128 121 113 105 103 102 102 108 106 107 103 100 99 88 86 83 73 61 54 46 42 36 29 23
349 296 195 205 158 231 264 252 93 91 73 0 94 123 97 86 74 165 128 133 115 90 14 14 345 254 160 124 88 61 41 10 20 17 14 2 10 16 5 8 39 73 130 159 160 146 118 115 108 120 171 164 176 167 165 165 163 166 163 159 161 164 160 163 167 171 171 162 165 148 152 146 149 138 136 138 137 125 122 114 121 119 115 111 106 97 83 76 80 70 61 53 49 43 37 29 24
254 289 82 260 143 241 252 77 77 23 99 35 66 88 84 84 78 289 113 272 104 197 82 64 277 306 74 226 103 78 54 58 78 44 34 33 28 23 23 10 49 73 88 105 170 94 101 92 91 101 178 175 174 175 174 166 168 165 174 167 161 163 165 169 168 177 179 166 168 163 161 154 157 146 139 150 149 138 127 123 127 130 128 112 101 63 65 86 82 74 61 54 49 43 35 28 25
242 270 118 266 192 259 194 123 91 62 108 115 105 66 69 55 24 315 116 68 129 76 46 29 23 281 110 129 91 97 56 67 93 51 37 35 42 40 35 25 36 52 59 64 145 132 127 107 64 46 82 149 170 180 185 182 170 171 173 175 164 165 170 175 169 174 180 171 178 170 168 173 165 157 159 153 157 146 129 131 137 133 116 110 91 75 68 67 74 71 62 54 48 42 34 28 26
235 276 196 267 358 199 182 130 173 111 117 101 103 104 88 100 91 331 355 136 54 237 58 345 324 23 140 137 130 74 48 37 47 47 36 37 36 56 60 42 34 30 61 67 111 141 82 90 77 21 8 108 163 179 192 184 187 170 180 173 173 169 174 178 176 177 184 175 175 168 186 180 173 172 170 158 158 160 154 147 143 126 120 97 81 78 79 79 79 70 60 54 49 42 36 29 28
233 162 347 255 213 187 218 151 113 149 136 142 119 88 77 83 267 186 0 56 68 6 107 1 227 80 227 84 58 99 63 44 34 27 22 36 49 34 71 62 46 25 51 38 62 349 125 141 103 56 10 4 59 137 172 192 198 179 184 179 184 175 183 184 181 181 182 187 177 181 189 193 190 183 170 129 205 176 159 160 136 140 116 101 86 86 85 86 80 71 64 58 46 41 36 30 27
251 199 182 247 234 237 184 143 139 122 134 162 136 112 82 348 231 240 167 210 114 162 64 340 34 339 260 158 141 137 62 35 24 17 10 25 55 54 53 76 69 61 54 61 54 147 113 145 177 139 103 22 11 30 347 201 196 198 192 189 192 195 180 197 202 189 180 175 188 197 197 205 202 154 179 148 183 192 152 178 152 134 118 109 95 95 97 93 85 78 73 64 50 40 37 31 27
305 14 227 252 14 266 60 148 144 144 158 185 145 96 69 228 279 359 19 282 121 231 97 31 348 280 261 181 111 135 48 23 14 7 5 14 54 62 72 75 75 75 71 79 95 106 120 209 187 185 165 106 101 357 36 344 242 196 195 212 197 196 173 182 182 204 210 171 180 194 222 208 147 184 175 161 169 175 179 193 179 144 123 112 110 108 107 100 94 89 81 69 57 45 38 35 29
302 356 302 256 41 271 213 103 138 178 188 122 80 101 134 266 45 341 317 285 108 32 40 7 297 1 270 222 167 133 30 9 355 2 356 23 65 75 75 79 75 78 81 85 87 84 106 79 277 246 171 199 218 195 228 225 194 233 189 175 267 238 187 178 179 175 193 144 133 143 165 144 151 146 148 175 172 180 140 53 358 162 127 115 114 110 113 110 103 97 86 79 71 54 46 38 32
327 322 260 299 169 212 106 211 183 207 137 142 93 124 150 95 341 320 326 319 74 38 71 79 353 281 66 281 80 12 351 349 344 344 336 39 83 83 81 98 94 76 68 76 82 77 80 45 239 221 253 230 218 221 217 201 186 184 226 183 173 194 275 315 224 176 165 154 131 106 93 75 89 118 149 162 180 140 111 102 35 244 137 123 119 120 117 114 111 102 95 95 85 75 62 50 41
338 272 253 218 195 227 154 236 179 230 132 142 107 85 231 135 162 259 46 345 331 113 298 123 78 339 14 1 37 351 343 343 340 326 313 146 148 121 107 96 90 77 65 50 61 61 45 68 45 314 260 242 226 223 222 219 171 172 186 178 184 187 181 192 3 15 1 139 135 142 143 148 146 141 168 172 182 153 154 157 109 1 155 136 132 132 126 122 121 112 113 110 104 98 89 83 65
281 268 218 213 196 216 135 212 168 228 111 113 133 178 255 163 153 157 12 289 273 165 77 38 52 31 54 44 11 358 357 354 346 336 325 314 210 146 102 72 82 89 67 61 40 31 37 40 35 4 319 292 249 239 233 235 144 164 170 184 190 178 168 158 192 191 176 133 143 159 165 208 210 180 165 186 160 181 161 156 160 175 196 155 146 144 135 136 128 127 128 126 123 124 122 110 102
251 233 241 214 64 203 125 212 153 71 143 128 144 49 285 248 155 137 231 225 232 265 129 96 83 72 73 83 41 24 15 16 16 28 36 43 6 31 58 51 35 43 47 44 43 27 14 24 18 4 221 240 277 260 247 233 159 178 227 210 205 181 170 177 184 204 183 189 152 159 223 231 223 199 168 147 191 159 159 168 174 193 161 168 164 150 144 144 141 140 142 138 132 137 171 170 129
285 265 250 25 103 68 30 67 84 204 110 105 105 73 309 314 346 90 285 191 191 258 134 140 106 102 96 66 43 32 25 31 25 32 41 36 31 35 33 27 32 24 34 15 30 24 12 355 5 355 346 294 254 257 240 227 235 221 218 225 215 203 197 184 209 210 205 210 189 212 219 233 224 220 171 158 189 155 162 175 155 151 141 162 164 158 160 155 153 152 152 132 139 168 206 43 65
62 292 238 97 64 99 72 109 106 45 77 148 177 115 276 332 286 357 267 297 281 266 138 168 137 101 64 52 39 24 31 34 32 29 35 33 28 23 26 18 17 17 14 1 11 20 8 354 349 332 342 278 240 223 225 223 204 207 221 202 217 199 204 208 241 226 226 207 203 209 217 226 220 225 104 137 158 190 168 170 146 153 158 175 175 168 165 154 151 155 136 144 166 208 34 34 50
77 260 340 101 121 147 142 111 73 78 14 31 318 65 268 243 300 311 305 296 252 104 46 22 36 42 49 47 36 22 28 34 37 31 32 30 27 27 22 16 7 360 7 343 12 2 5 354 347 337 324 264 208 200 218 219 200 195 181 216 211 204 163 176 202 273 246 233 217 231 253 238 234 241 190 182 210 218 188 175 169 187 182 186 182 194 187 160 179 171 166 203 234 60 28 35 28
284 30 50 90 123 235 114 107 61 65 40 295 154 250 286 70 276 261 274 260 7 48 23 15 34 38 38 27 28 27 29 31 30 29 28 30 20 17 10 7 11 8 8 6 357 351 4 354 350 333 306 275 214 202 201 178 292 188 184 173 194 257 200 150 186 110 291 230 224 263 321 280 264 257 227 233 223 229 224 218 182 187 182 189 190 212 201 189 214 199 217 214 340 51 60 59 25
257 134 103 16 43 343 119 143 101 267 209 231 241 283 344 259 269 245 264 296 72 51 49 62 63 52 59 44 28 38 34 30 24 22 16 20 17 15 10 2 4 4 359 4 357 355 358 354 346 336 308 268 205 200 187 196 193 180 160 85 276 187 132 74 93 92 193 56 17 27 2 341 320 290 295 278 252 243 244 234 225 208 187 197 192 217 212 215 219 237 244 235 332 75 140 98 69
291 71 129 140 77 266 113 149 138 211 233 244 295 1 271 252 256 130 225 84 89 83 76 84 77 88 79 70 56 50 47 39 32 18 12 14 13 13 6 6 5 9 3 -0 2 358 359 355 347 332 322 221 186 179 178 169 181 156 87 91 264 79 87 57 38 28 41 43 40 31 18 16 2 335 324 305 305 296 268 268 224 211 200 185 178 211 235 257 265 256 272 302 53 186 92 65 112
255 228 161 110 268 245 183 206 208 219 232 254 237 259 253 233 265 161 187 112 116 111 116 90 106 108 87 67 55 50 47 44 31 36 35 22 15 15 19 15 12 18 7 8 2 356 350 345 337 339 226 209 179 169 162 157 142 147 92 59 59 51 47 57 53 52 48 46 42 38 24 19 19 17 12 352 330 298 317 307 19 16 349 340 274 276 283 289 296 283 263 285 265 287 21 48 69
338 50 151 175 228 224 226 238 235 227 232 213 222 242 243 220 111 227 123 133 127 134 122 130 125 107 84 64 49 39 37 32 23 21 22 26 25 22 27 20 11 16 12 6 355 350 342 335 337 7 337 346 86 156 156 113 64 70 65 60 62 62 66 65 57 57 46 40 42 36 36 32 37 34 33 27 30 29 2 336 344 353 28 13 355 345 342 325 342 7 9 20 24 23 6 23 9
331 31 277 270 269 239 225 243 250 202 237 193 228 255 196 159 203 196 142 139 144 151 138 124 141 79 59 48 45 36 33 28 16 5 16 25 26 24 23 22 16 8 10 2 354 344 333 341 1 5 342 349 16 55 61 74 73 75 71 70 68 69 72 66 64 63 60 59 54 51 49 43 45 45 42 34 44 42 39 35 32 29 38 19 28 35 35 25 26 37 45 47 31 9 347 21 14
347 317 283 252 246 236 221 226 253 231 234 214 231 247 122 169 214 285 142 146 159 168 149 142 140 103 85 71 51 42 32 31 21 16 22 21 20 14 23 11 8 7 9 356 348 338 345 356 2 30 42 41 58 71 70 69 65 68 75 69 61 60 60 67 63 65 60 56 55 52 50 49 49 59 51 49 57 53 57 55 45 35 26 28 39 34 41 37 32 45 51 58 50 31 23 29 11
354 293 287 272 233 242 204 229 189 202 209 182 198 215 217 179 223 127 132 148 165 181 167 166 149 143 132 123 115 104 63 41 35 38 29 25 25 26 28 26 11 1 4 355 347 348 355 347 13 31 46 48 61 64 65 62 64 66 71 68 64 58 62 60 58 51 54 52 47 46 47 55 57 55 57 59 49 59 62 66 63 54 44 35 39 46 50 42 44 41 48 44 41 40 43 34 321
283 237 274 289 261 246 165 146 162 209 118 177 182 248 225 197 160 133 136 165 175 186 201 181 167 159 137 131 136 106 74 73 57 44 25 27 25 27 28 27 20 14 2 356 357 1 356 10 27 42 49 52 54 61 61 64 63 65 69 68 61 57 59 58 52 50 48 48 45 39 43 46 44 46 49 52 56 57 60 61 60 62 56 54 53 44 53 60 87 84 76 72 72 68 67 64 32
256 132 228 267 272 255 142 174 152 210 132 178 229 250 334 142 133 137 153 168 183 199 191 182 178 164 155 155 149 123 111 64 61 52 43 38 30 38 26 27 25 22 11 3 4 352 16 31 24 46 45 57 60 60 60 61 59 60 59 60 54 56 59 57 49 44 46 43 41 41 37 35 36 31 26 40 53 57 56 50 46 44 43 45 55 66 81 63 58 44 49 98 97 106 143 134 147
230 259 243 206 241 137 148 150 184 227 150 200 212 254 272 158 159 144 150 182 198 219 197 188 181 179 167 163 160 166 115 110 85 62 44 38 37 32 32 30 32 23 14 2 5 9 24 31 43 53 53 61 59 56 57 60 62 60 58 55 57 53 56 53 50 48 47 43 43 43 35 36 39 39 33 26 40 42 51 51 46 44 42 45 43 45 43 46 39 32 24 4 342 143 223 184 200
214 235 266 266 228 232 185 167 164 232 136 177 205 272 82 169 148 142 154 176 197 217 203 196 186 185 190 174 171 160 157 146 117 71 41 30 41 27 35 32 35 24 9 10 16 16 33 37 46 57 63 68 68 69 67 66 65 63 61 58 58 55 55 53 50 45 47 45 41 40 32 32 40 42 47 50 51 47 45 40 29 24 25 30 31 32 31 26 29 32 27 14 354 358 21 8 345
233 203 259 263 256 247 258 112 200 159 216 216 206 242 261 108 160 158 162 184 194 211 205 199 194 192 182 180 182 180 177 157 129 60 36 29 35 29 43 36 30 22 23 25 23 28 46 52 59 63 66 65 73 71 71 71 68 69 64 63 62 60 56 55 51 49 48 44 40 37 33 37 32 35 39 44 56 57 54 48 41 35 34 34 38 35 30 24 24 18 37 32 20 14 20 5 351
267 203 236 254 232 239 269 255 138 203 180 258 243 237 258 180 160 171 170 187 200 212 205 200 197 192 186 196 190 182 171 166 95 51 31 31 34 37 41 39 37 25 29 36 40 44 55 64 70 73 80 83 84 83 82 81 80 74 69 65 62 60 58 52 51 52 49 46 41 39 39 40 35 37 39 41 48 51 51 48 46 41 40 41 41 36 33 27 24 27 22 22 38 34 9 4 351
288 293 289 289 278 246 247 227 109 227 228 239 246 257 254 244 165 169 169 181 200 206 185 194 204 194 195 197 192 179 180 130 68 48 34 34 38 33 43 45 45 35 39 42 48 49 55 60 66 61 68 89 86 85 81 77 74 72 71 66 64 60 58 56 52 52 48 45 40 40 39 40 36 35 38 42 48 50 51 48 49 45 44 44 43 38 32 26 20 15 22 21 16 30 26 5 356
308 293 274 270 273 270 271 140 115 113 272 253 261 261 260 262 229 175 173 170 197 198 197 199 201 196 194 198 184 179 163 103 74 74 60 52 54 46 56 50 65 62 50 49 55 49 52 58 57 55 46 47 77 80 76 84 80 77 70 66 70 63 62 62 58 52 49 47 42 42 42 39 35 34 33 36 41 46 49 48 45 43 45 43 42 39 32 28 23 17 2 34 23 24 27 8 360
269 274 267 264 249 264 277 281 121 168 242 268 264 263 260 261 265 168 162 178 200 201 204 201 193 191 189 188 177 176 135 108 138 117 103 91 78 77 80 75 59 78 52 58 58 56 58 57 58 59 55 56 57 67 73 63 56 59 74 68 69 61 58 58 59 52 54 51 47 45 42 40 39 39 35 35 37 41 45 45 44 42 42 45 44 41 34 29 24 22 16 10 27 31 34 14 11
248 253 258 259 255 265 258 154 146 150 226 267 265 265 262 256 260 166 179 190 199 194 202 197 187 183 186 181 173 159 147 141 139 114 114 113 102 95 93 83 73 68 70 66 64 73 69 67 68 68 68 72 67 71 77 77 76 72 78 81 79 79 67 66 68 64 59 58 52 48 48 44 42 41 39 38 38 38 42 45 43 43 45 44 47 42 36 34 26 23 22 18 1 36 36 30 20
246 232 234 243 265 254 266 129 190 186 225 313 355 296 275 268 246 170 188 196 160 134 140 137 170 182 187 182 173 166 157 150 147 146 140 129 128 117 101 93 82 78 79 68 56 61 65 67 68 76 78 79 81 78 83 86 88 88 86 88 87 86 87 79 74 66 61 59 56 52 50 48 48 47 42 42 44 42 40 44 44 42 42 43 46 46 40 36 30 25 23 23 13 22 23 26 28
221 233 246 250 242 238 243 292 139 182 237 244 271 273 270 251 241 182 162 128 148 167 169 179 185 187 148 128 143 167 159 155 144 143 144 147 138 119 108 97 92 86 71 54 41 50 61 64 69 76 80 83 89 95 98 103 103 102 104 104 105 102 92 83 77 68 63 61 62 52 49 49 50 50 47 44 45 44 42 42 42 43 42 40 42 44 44 39 32 28 23 26 24 14 24 18 24
245 220 223 247 258 268 271 272 318 285 283 189 215 294 273 251 231 211 144 175 203 179 186 193 184 183 176 180 173 156 137 144 152 150 145 140 132 123 113 105 96 90 81 55 49 55 68 75 78 82 85 86 91 99 109 110 114 119 125 116 106 95 86 73 69 73 70 65 65 66 58 52 52 51 49 47 45 44 43 42 42 42 43 40 38 42 41 39 33 27 23 23 24 18 10 26 21
255 268 200 234 256 271 271 270 235 274 265 77 215 243 280 103 222 154 155 188 196 172 206 190 181 180 179 177 170 169 163 148 135 130 136 136 129 124 112 98 94 91 79 75 72 68 69 72 72 77 79 77 74 82 96 106 91 82 83 87 91 95 97 84 86 85 85 82 78 71 65 56 52 52 48 46 45 42 44 40 40 42 42 42 40 42 40 37 34 29 20 24 24 21 14 28 21
249 56 9 174 250 248 248 246 241 257 301 178 194 244 274 280 259 139 159 196 193 196 206 196 185 180 176 172 167 164 162 159 151 146 140 127 124 125 114 96 93 86 85 87 80 74 77 78 81 81 83 84 76 78 78 86 95 92 94 94 90 90 92 99 94 88 88 87 82 75 71 64 57 54 53 49 45 44 43 43 40 41 41 39 39 43 39 34 33 30 28 24 24 28 25 20 18
268 91 76 191 253 263 249 245 245 256 294 266 194 193 258 261 223 146 168 196 202 210 198 195 187 183 175 173 165 162 158 155 155 148 141 132 121 106 110 103 93 86 77 82 87 86 86 90 90 93 91 86 81 78 81 84 92 98 99 102 100 95 97 100 100 94 90 86 83 80 78 75 69 61 54 53 48 46 44 44 41 42 40 37 37 37 35 34 33 31 27 27 22 22 29 21 18
129 126 83 82 110 98 232 232 244 249 245 250 227 183 246 266 226 176 176 242 231 207 187 187 184 179 176 173 165 162 154 150 149 143 135 127 120 107 97 111 106 96 97 103 102 99 97 100 102 98 89 84 84 83 85 88 91 96 98 102 107 109 107 103 99 96 90 86 84 82 76 73 68 64 57 49 48 47 44 42 43 40 39 36 34 33 31 33 32 31 29 30 23 20 18 20 22
131 144 132 122 141 171 180 236 245 268 245 247 225 208 212 281 245 203 173 212 215 175 165 173 174 174 175 175 167 164 160 156 153 144 138 130 117 128 141 135 122 116 113 113 103 104 106 105 106 96 91 90 86 85 88 89 91 96 101 103 104 107 107 108 107 99 94 90 87 82 77 72 68 64 58 51 46 44 46 44 44 42 40 39 35 33 29 25 28 28 26 28 30 21 15 7 18
163 159 182 165 182 181 215 211 213 244 262 230 202 219 199 232 223 228 166 107 185 170 169 171 175 175 175 174 171 167 161 161 156 148 147 141 142 148 160 145 142 129 121 112 107 107 108 110 110 103 94 89 88 89 91 92 94 95 98 102 103 105 108 104 101 99 97 94 91 89 85 80 74 69 61 54 44 39 43 41 38 42 40 35 33 30 27 19 17 29 28 26 25 22 18 6 18
212 185 182 191 219 153 223 184 216 216 250 106 53 104 211 235 242 298 114 151 133 176 173 174 173 172 173 173 170 164 160 158 161 158 156 159 165 167 168 156 144 147 132 126 119 112 112 112 112 107 102 98 95 97 95 96 95 97 100 101 99 98 98 100 99 99 98 94 90 91 90 85 77 69 60 57 47 42 42 38 36 34 33 31 28 26 23 20 10 24 31 21 22 23 15 356 12
190 194 184 190 225 224 243 221 227 250 112 294 91 208 252 293 259 234 236 120 105 106 146 168 168 171 172 169 164 158 158 163 164 162 163 167 170 171 170 160 159 148 143 135 130 125 122 120 119 113 110 108 105 103 102 100 96 98 98 100 101 103 102 102 98 95 94 94 93 89 86 84 79 73 66 57 46 45 46 42 39 40 35 31 27 21 17 20 8 9 27 19 13 20 6 354 1
199 198 194 203 208 222 229 218 222 231 259 102 244 138 234 166 211 44 73 82 88 84 52 159 165 165 161 158 152 149 156 164 165 167 169 172 172 171 167 167 162 157 151 146 140 133 126 122 125 123 118 114 113 110 109 106 104 101 100 99 104 106 104 101 96 95 94 94 91 91 87 84 84 80 77 79 61 50 50 55 48 40 35 30 26 22 10 18 8 3 21 18 8 15 354 351 345
193 200 220 229 227 251 259 4 329 37 164 188 176 225 244 211 96 104 111 123 131 124 128 148 158 158 154 156 160 161 166 167 167 168 170 173 171 169 169 169 164 161 156 150 144 137 133 131 132 128 126 125 123 122 118 117 113 107 103 102 98 96 98 101 101 98 96 95 97 97 92 88 90 90 83 75 65 53 38 37 45 41 31 27 21 20 13 8 360 354 8 6 3 3 343 338 338
171 172 214 204 19 282 31 154 107 121 310 256 155 242 242 302 193 157 164 151 144 141 152 168 161 164 160 165 165 167 171 171 170 174 174 172 169 173 174 169 166 161 159 157 153 150 144 141 139 134 131 131 131 129 126 123 118 115 108 106 108 108 110 111 112 112 111 107 102 96 92 90 85 79 77 66 57 49 44 28 32 34 29 22 16 17 9 2 349 349 2 347 354 354 338 332 332
116 213 202 75 33 1 251 253 178 215 254 264 163 217 225 177 246 137 157 182 166 168 171 172 165 167 170 172 171 172 175 174 171 172 172 173 173 173 172 172 169 166 162 159 155 151 147 147 147 142 141 140 139 136 136 132 126 120 120 119 116 116 117 120 123 123 118 115 109 101 97 87 76 78 78 64 56 45 48 35 33 26 24 17 12 10 2 353 348 346 350 339 357 347 331 327 329
244 251 114 153 207 222 213 235 251 242 238 261 218 217 232 212 209 139 187 189 182 179 170 174 175 179 182 176 174 172 169 168 172 177 175 176 176 175 175 172 167 167 165 160 155 151 149 147 148 146 145 146 144 142 139 132 129 127 132 131 130 132 132 128 123 115 109 102 94 90 92 90 87 73 63 57 47 47 38 27 32 22 16 11 12 7 357 353 341 346 344 347 359 350 332 326 323
307 224 219 234 339 227 189 202 275 248 254 239 261 160 248 193 224 174 187 192 182 166 172 190 186 182 182 179 175 175 176 178 177 179 179 178 176 176 175 170 168 168 166 162 157 154 153 149 149 148 143 144 145 145 143 140 139 138 137 136 141 139 134 130 124 115 107 104 102 101 95 89 78 71 66 56 53 44 35 28 19 22 11 8 9 5 357 348 340 351 345 349 342 337 331 323 328
184 204 213 172 214 26 325 261 218 224 255 248 273 264 241 193 197 187 190 185 173 170 182 186 186 186 185 181 177 179 179 178 178 179 176 175 173 171 169 170 167 164 163 160 160 159 156 151 156 155 155 154 153 149 148 145 144 145 147 151 147 144 134 122 114 112 110 106 102 92 86 92 88 74 61 62 60 47 35 26 16 13 16 358 2 356 346 344 341 341 337 339 328 329 328 324 327
194 190 202 193 179 191 207 242 187 238 226 250 249 260 293 107 19 27 182 174 167 178 173 175 185 185 185 185 185 181 180 182 177 176 171 167 168 166 167 167 166 164 166 165 161 162 161 162 163 158 157 159 156 156 154 148 149 152 159 153 150 144 135 124 124 123 115 113 104 96 98 98 97 90 84 73 69 61 27 21 8 359 5 352 353 347 340 342 338 332 332 335 328 331 326 325 328